Fond du Lac, WI

12:18 AM CDT on March 26, 2017 (GMT -0500)
Fond du Lac County

Weather History for KFLD - February, 2013

Change the Weather History Date:

Wednesday, February 20, 2013

  Actual Average Record
Temperature  
Mean Temperature 13 °F -  
Max Temperature 23 °F 32 °F 55 °F (2017)
Min Temperature 3 °F 16 °F -18 °F (1959)
Degree Days  
Heating Degree Days 52    
Moisture  
Dew Point 2 °F    
Average Humidity 62    
Maximum Humidity 71    
Minimum Humidity 50    
Precipitation  
Precipitation 0.00 in - - ()
Sea Level Pressure  
Sea Level Pressure 30.34 in    
Wind  
Wind Speed 12 mph (NW)    
Max Wind Speed 16 mph    
Max Gust Speed 23 mph    
Visibility 10 miles    
Events      
Averages and records for this station are not official NWS values.
T = Trace of Precipitation, MM = Missing Value Source: NWS Daily Summary

Daily Weather History Graph

Daily Weather History Graph

Search for Another Location

Airport or City:

Trip Planner

Search our weather history database for the weather conditions in past years. The results will help you decide how hot, cold, wet, or windy it might be!

Date:

Astronomy

Feb. 20, 2013 Rise Set
Actual Time 6:44 AM CST 5:31 PM CST
Civil Twilight 6:15 AM CST 6:00 PM CST
Nautical Twilight 5:42 AM CST 6:33 PM CST
Astronomical Twilight 5:08 AM CST 7:07 PM CST
Moon 12:46 PM CST (2/20) 3:10 AM CST (2/20)
Length of Visible Light 11h 44m
Length of Day
10h 46m
Waxing Gibbous, 76% of the Moon is Illuminated
Feb 20
Waxing Gibbous
Feb 25
Full
Mar 4
Last Quarter
Mar 11
New
Mar 19
First Quarter

Hourly Weather History & Observations

Time (CST) Temp. Windchill Dew Point Humidity Pressure Visibility Wind Dir Wind Speed Gust Speed Precip Events Conditions
12:53 AM 6.1 °F -11.6 °F -4.0 °F 63% 30.19 in 10.0 mi WNW 15.0 mph - N/A   Clear
1:53 AM 6.1 °F -10.2 °F -4.0 °F 63% 30.22 in 10.0 mi WNW 12.7 mph - N/A   Clear
2:53 AM 6.1 °F -11.6 °F -4.0 °F 63% 30.24 in 10.0 mi West 15.0 mph - N/A   Clear
3:53 AM 5.0 °F -13.0 °F -4.0 °F 66% 30.26 in 10.0 mi West 15.0 mph 21.9 mph N/A   Clear
4:53 AM 5.0 °F -13.6 °F -4.0 °F 66% 30.28 in 10.0 mi WNW 16.1 mph 23.0 mph N/A   Clear
5:53 AM 3.9 °F -13.0 °F -4.0 °F 70% 30.30 in 10.0 mi WNW 12.7 mph - N/A   Clear
7:53 AM 6.1 °F -11.6 °F -2.9 °F 67% 30.34 in 10.0 mi WNW 15.0 mph - N/A   Clear
8:53 AM 8.1 °F -6.2 °F -0.9 °F 67% 30.33 in 10.0 mi NW 10.4 mph - N/A   Clear
9:53 AM 10.9 °F -3.4 °F 1.0 °F 64% 30.34 in 10.0 mi NW 11.5 mph - N/A   Clear
10:53 AM 12.9 °F -0.9 °F 3.0 °F 65% 30.35 in 10.0 mi NW 11.5 mph - N/A   Clear
11:53 AM 16.0 °F 4.4 °F 5.0 °F 62% 30.36 in 10.0 mi NW 9.2 mph - N/A   Clear
12:53 PM 19.0 °F 6.1 °F 5.0 °F 54% 30.34 in 10.0 mi NW 12.7 mph - N/A   Clear
1:53 PM 21.0 °F 9.9 °F 7.0 °F 55% 30.35 in 10.0 mi NW 10.4 mph - N/A   Clear
2:53 PM 21.9 °F 12.5 °F 7.0 °F 53% 30.37 in 10.0 mi West 8.1 mph - N/A   Clear
3:53 PM 23.0 °F 17.0 °F 7.0 °F 50% 30.37 in 10.0 mi West 4.6 mph - N/A   Clear
4:53 PM 21.0 °F 16.2 °F 7.0 °F 55% 30.38 in 10.0 mi WNW 3.5 mph - N/A   Clear
5:53 PM 19.0 °F 10.0 °F 7.0 °F 59% 30.38 in 10.0 mi NW 6.9 mph - N/A   Clear
6:53 PM 18.0 °F 11.1 °F 6.1 °F 60% 30.38 in 10.0 mi NW 4.6 mph - N/A   Clear
7:53 PM 16.0 °F 7.4 °F 5.0 °F 62% 30.38 in 10.0 mi WNW 5.8 mph - N/A   Clear
8:53 PM 14.0 °F 3.9 °F 5.0 °F 67% 30.39 in 10.0 mi North 6.9 mph - N/A   Clear
10:53 PM 14.0 °F 2.0 °F 5.0 °F 67% 30.41 in 10.0 mi NNE 9.2 mph - N/A   Clear
11:53 PM 12.9 °F 0.7 °F 5.0 °F 71% 30.43 in 10.0 mi NNE 9.2 mph - N/A   Clear